User: anonymous   Login
Location: Unspecified
(0.0000°N, 0.0000°E)
Time: 18:04:51
(UTC+00:00)
Language:

UKube-1 - Orbit

View from above orbital plane
View from above orbital plane
View from above satellite
View from above satellite

Ground track
Ground track

The orbit data is extracted from the following two-line orbital elements,

1 40074U 14037F   18114.13561532  .00000384  00000-0  53544-4 0  9991
2 40074  98.3792 248.6900 0005807 122.6979 237.4791 14.83768239205281
Epoch (UTC): 24 April 2018 03:15:17
Eccentricity: 0.0005807
inclination: 98.3792°
perigee height: 613 km
apogee height: 621 km
right ascension of ascending node: 248.6900°
argument of perigee: 122.6979°
revolutions per day: 14.83768239
mean anomaly at epoch: 237.4791°
orbit number at epoch: 20528

The dashed part of the orbit path shows where the satellite is in the earth's shadow,  

DLR